Location: Palo Alto
(37.4420°N, 122.1420°W)
Time: 16:52:05
(UTC-08:00)

ISS - All Passes

Search period start: 22 December 2014 00:00
Search period end: 01 January 2015 00:00
Orbit: 404 x 414 km, 51.6° (Epoch: 22 December)

Date Brightness Start Highest point End Pass type
(mag) Time Alt. Az. Time Alt. Az. Time Alt. Az.
22 Dec - 12:17:06 10° SSW 12:20:16 44° SE 12:23:26 10° ENE daylight
22 Dec - 13:54:22 10° W 13:56:58 21° NNW 13:59:35 10° NNE daylight
22 Dec - 18:47:09 10° NNW 18:50:02 27° NNE 18:52:53 10° E visible
22 Dec - 20:23:42 10° WNW 20:26:34 28° SW 20:29:25 10° SSE night (unlit)
23 Dec - 11:26:55 10° S 11:29:33 22° SE 11:32:12 10° ENE daylight
23 Dec - 13:02:57 10° W 13:06:00 33° NNW 13:09:03 10° NNE daylight
23 Dec - 17:56:39 10° NNW 17:59:00 18° NNE 18:01:21 10° ENE visible
23 Dec - 19:32:36 10° WNW 19:35:50 59° SW 19:39:02 10° SE visible
24 Dec - 10:37:41 10° SSE 10:38:53 12° SE 10:40:04 10° ESE daylight
24 Dec - 12:11:47 10° WSW 12:15:03 62° NW 12:18:20 10° NE daylight
24 Dec - 13:50:41 10° NW 13:52:10 12° NNW 13:53:40 10° N daylight
24 Dec - 17:06:18 10° N 17:07:52 13° NNE 17:09:27 10° NE daylight
24 Dec - 18:41:42 10° NW 18:44:58 67° NE 18:48:12 10° ESE visible
24 Dec - 20:20:34 10° WSW 20:21:06 10° SW 20:21:37 10° SW visible
25 Dec - 11:20:52 10° SW 11:24:09 65° SE 11:27:26 10° NE daylight
25 Dec - 12:58:42 10° WNW 13:01:00 17° NNW 13:03:18 10° NNE daylight
25 Dec - 17:50:55 10° NW 17:53:59 35° NE 17:57:01 10° ESE visible
25 Dec - 19:27:53 10° W 19:30:22 20° SW 19:32:51 10° S visible
26 Dec - 10:30:19 10° SSW 10:33:17 31° SE 10:36:16 10° ENE daylight
26 Dec - 12:07:00 10° W 12:09:51 26° NNW 12:12:42 10° NNE daylight
26 Dec - 17:00:14 10° NNW 17:02:53 22° NNE 17:05:31 10° E daylight
26 Dec - 18:36:27 10° WNW 18:39:33 40° SW 18:42:37 10° SSE visible
27 Dec - 09:40:18 10° S 09:42:27 16° SE 09:44:36 10° E daylight
27 Dec - 11:15:34 10° WSW 11:18:45 44° NW 11:21:56 10° NE daylight
27 Dec - 12:55:08 10° NNW 12:55:59 11° NNW 12:56:51 10° N daylight
27 Dec - 16:09:38 10° NNW 16:11:39 15° NNE 16:13:40 10° ENE daylight
27 Dec - 17:45:19 10° NW 17:48:36 85° SW 17:51:52 10° SE visible
28 Dec - 10:24:22 10° SW 10:27:41 87° NW 10:30:59 10° NE daylight
28 Dec - 12:02:43 10° WNW 12:04:39 15° NNW 12:06:36 10° NNE daylight
28 Dec - 15:19:18 10° N 15:20:19 11° NNE 15:21:21 10° NE daylight
28 Dec - 16:54:20 10° NW 16:57:32 48° NE 17:00:42 10° ESE daylight
28 Dec - 18:31:53 10° W 18:33:47 15° SW 18:35:40 10° SSW visible
29 Dec - 09:33:29 10° SSW 09:36:39 45° SE 09:39:49 10° ENE daylight
29 Dec - 11:10:45 10° W 11:13:21 21° NNW 11:15:57 10° NNE daylight
29 Dec - 16:03:27 10° NNW 16:06:21 27° NNE 16:09:13 10° E daylight
29 Dec - 17:40:00 10° WNW 17:42:52 28° SW 17:45:43 10° SSE visible
30 Dec - 08:43:00 10° S 08:45:39 22° SE 08:48:18 10° ENE daylight
30 Dec - 10:19:02 10° W 10:22:04 33° NNW 10:25:07 10° NNE daylight
30 Dec - 15:12:40 10° NNW 15:15:02 18° NNE 15:17:23 10° ENE daylight
30 Dec - 16:48:36 10° WNW 16:51:50 59° SW 16:55:03 10° SE daylight
31 Dec - 07:53:30 10° SSE 07:54:41 12° SE 07:55:52 10° ESE daylight
31 Dec - 09:27:34 10° WSW 09:30:51 62° NW 09:34:08 10° NE daylight
31 Dec - 11:06:27 10° NW 11:07:57 12° NNW 11:09:27 10° N daylight
31 Dec - 14:22:01 10° N 14:23:37 13° NNE 14:25:12 10° NE daylight
31 Dec - 15:57:24 10° NW 16:00:41 67° NE 16:03:56 10° ESE daylight
31 Dec - 17:36:13 10° WSW 17:36:48 10° SW 17:37:22 10° SW visible
